• In Hungary
  • List of Countries
  • For 7 days
  • Water Temperature
  • Satellite Maps
  • Weather Map
  • News
  • Weather Widgets
  • user-avatar
    Login

    Hourly Weather Ojmjakon

    Today, 23 September, Sunday

    Time Temperature Precipitation Wind Pressure Humidity
    00:00 -3°C° 0.1 mm 2 mps 650 mmHg 65%
    01:00 -3°C° 0.2 mm 2 mps 650 mmHg 67%
    02:00 -3°C° 0.2 mm 2 mps 649 mmHg 69%
    03:00 -1°C° 0 mm 1 mps 649 mmHg 72%
    04:00 -1°C° 0.1 mm 1 mps 649 mmHg 74%
    05:00 -3°C° 0.1 mm 2 mps 649 mmHg 75%
    06:00 -3°C° 0.1 mm 2 mps 649 mmHg 77%
    07:00 -3°C° 0.1 mm 2 mps 649 mmHg 73%
    08:00 -2°C° 0.1 mm 2 mps 649 mmHg 69%
    09:00 -1°C° 0.1 mm 2 mps 648 mmHg 66%
    10:00 -1°C° 0.2 mm 2 mps 648 mmHg 66%
    11:00 +1°C° 0.2 mm 2 mps 648 mmHg 66%
    12:00 +2°C° 0.2 mm 1 mps 648 mmHg 66%
    13:00 +2°C° 0.2 mm 1 mps 648 mmHg 68%
    14:00 +2°C° 0.2 mm 1 mps 648 mmHg 69%
    15:00 +2°C° 0.2 mm 1 mps 647 mmHg 71%
    16:00 +1°C° 0.2 mm 1 mps 647 mmHg 75%
    17:00 0°C° 0.2 mm 1 mps 647 mmHg 80%
    18:00 -1°C° 0.2 mm 1 mps 647 mmHg 85%
    19:00 -2°C° 0.1 mm 1 mps 647 mmHg 86%
    20:00 -2°C° 0.1 mm 1 mps 648 mmHg 87%
    21:00 -3°C° 0.1 mm 1 mps 648 mmHg 87%
    22:00 -3°C° 0 mm 1 mps 648 mmHg 88%
    23:00 -3°C° 0 mm 1 mps 648 mmHg 88%

    Tomorrow, 24 September, Monday

    Time Temperature Precipitation Wind Pressure Humidity
    00:00 -3°C° 0 mm 1 mps 648 mmHg 89%
    01:00 -6°C° 0 mm 2 mps 648 mmHg 89%
    02:00 -6°C° 0 mm 2 mps 649 mmHg 90%
    03:00 -7°C° 0 mm 2 mps 649 mmHg 91%
    04:00 -7°C° 0 mm 2 mps 649 mmHg 91%
    05:00 -7°C° 0 mm 2 mps 649 mmHg 90%
    06:00 -7°C° 0 mm 2 mps 649 mmHg 90%
    07:00 -6°C° 0 mm 2 mps 650 mmHg 84%
    08:00 -6°C° 0 mm 2 mps 650 mmHg 78%
    09:00 -6°C° 0 mm 3 mps 650 mmHg 72%
    10:00 -5°C° 0 mm 3 mps 650 mmHg 69%
    11:00 -5°C° 0 mm 3 mps 650 mmHg 66%
    12:00 -4°C° 0 mm 3 mps 650 mmHg 63%
    13:00 -4°C° 0 mm 3 mps 650 mmHg 62%
    14:00 -4°C° 0 mm 3 mps 650 mmHg 61%
    15:00 -4°C° 0 mm 3 mps 650 mmHg 60%
    16:00 -4°C° 0 mm 2 mps 650 mmHg 65%
    17:00 -6°C° 0 mm 2 mps 650 mmHg 71%
    18:00 -6°C° 0 mm 1 mps 650 mmHg 76%
    19:00 -6°C° 0 mm 1 mps 650 mmHg 76%
    20:00 -7°C° 0 mm 1 mps 650 mmHg 77%
    21:00 -7°C° 0 mm 1 mps 651 mmHg 77%
    22:00 -7°C° 0 mm 1 mps 650 mmHg 78%
    23:00 -8°C° 0 mm 1 mps 650 mmHg 78%

    Day after tomorrow, 25 September, Tuesday

    Time Temperature Precipitation Wind Pressure Humidity
    00:00 -8°C° 0 mm 1 mps 650 mmHg 78%
    01:00 -8°C° 0 mm 1 mps 650 mmHg 78%
    02:00 -8°C° 0 mm 1 mps 650 mmHg 79%
    03:00 -8°C° 0 mm 1 mps 650 mmHg 79%
    04:00 -8°C° 0 mm 1 mps 650 mmHg 78%
    05:00 -8°C° 0 mm 1 mps 651 mmHg 77%
    06:00 -8°C° 0 mm 1 mps 651 mmHg 76%
    07:00 -7°C° 0 mm 1 mps 651 mmHg 69%
    08:00 -4°C° 0 mm 1 mps 651 mmHg 63%
    09:00 -3°C° 0 mm 1 mps 651 mmHg 56%
    10:00 -2°C° 0 mm 1 mps 651 mmHg 53%
    11:00 -1°C° 0 mm 1 mps 651 mmHg 49%
    12:00 0°C° 0 mm 1 mps 651 mmHg 46%
    13:00 0°C° 0 mm 1 mps 651 mmHg 46%
    14:00 0°C° 0 mm 1 mps 651 mmHg 47%
    15:00 +1°C° 0 mm 1 mps 651 mmHg 47%
    16:00 -1°C° 0 mm 1 mps 650 mmHg 53%
    17:00 -2°C° 0 mm 1 mps 650 mmHg 58%
    18:00 -4°C° 0 mm 1 mps 650 mmHg 64%
    19:00 -4°C° 0 mm 1 mps 650 mmHg 64%
    20:00 -4°C° 0 mm 1 mps 650 mmHg 65%
    21:00 -3°C° 0 mm 1 mps 650 mmHg 65%
    22:00 -3°C° 0 mm 1 mps 650 mmHg 66%
    23:00 -3°C° 0 mm 1 mps 650 mmHg 67%

    26 September, Wednesday

    Time Temperature Precipitation Wind Pressure Humidity
    00:00 -3°C° 0 mm 1 mps 650 mmHg 68%
    01:00 -3°C° 0 mm 1 mps 650 mmHg 69%
    02:00 -3°C° 0 mm 1 mps 650 mmHg 70%
    03:00 -3°C° 0 mm 1 mps 650 mmHg 71%
    04:00 -3°C° 0 mm 1 mps 650 mmHg 74%
    05:00 -3°C° 0 mm 1 mps 650 mmHg 76%
    06:00 -3°C° 0 mm 1 mps 650 mmHg 79%
    07:00 -2°C° 0 mm 1 mps 650 mmHg 76%
    08:00 -1°C° 0 mm 1 mps 650 mmHg 73%
    09:00 +1°C° 0 mm 1 mps 650 mmHg 70%
    10:00 -1°C° 0 mm 2 mps 650 mmHg 69%
    11:00 +1°C° 0 mm 2 mps 650 mmHg 67%
    12:00 +1°C° 0 mm 3 mps 650 mmHg 66%
    13:00 +1°C° 0 mm 3 mps 650 mmHg 67%
    14:00 +2°C° 0 mm 2 mps 650 mmHg 68%
    15:00 +2°C° 0 mm 2 mps 650 mmHg 69%
    16:00 +1°C° 0 mm 2 mps 650 mmHg 74%
    17:00 0°C° 0 mm 1 mps 650 mmHg 79%
    18:00 -1°C° 0 mm 1 mps 649 mmHg 85%
    19:00 -2°C° 0 mm 1 mps 649 mmHg 85%
    20:00 -2°C° 0 mm 1 mps 650 mmHg 85%
    21:00 -2°C° 0 mm 1 mps 650 mmHg 86%
    22:00 -2°C° 0 mm 1 mps 650 mmHg 86%
    23:00 -2°C° 0 mm 1 mps 650 mmHg 86%

    27 September, Thursday

    Time Temperature Precipitation Wind Pressure Humidity
    00:00 -3°C° 0 mm 1 mps 650 mmHg 86%
    01:00 -3°C° 0 mm 1 mps 650 mmHg 86%
    02:00 -3°C° 0 mm 1 mps 650 mmHg 86%
    03:00 -3°C° 0 mm 1 mps 650 mmHg 86%
    04:00 -3°C° 0 mm 1 mps 650 mmHg 85%
    05:00 -3°C° 0 mm 1 mps 650 mmHg 84%
    06:00 -3°C° 0 mm 1 mps 651 mmHg 83%
    07:00 -1°C° 0 mm 1 mps 651 mmHg 77%
    08:00 0°C° 0 mm 1 mps 651 mmHg 71%
    09:00 +2°C° 0 mm 1 mps 652 mmHg 65%
    10:00 +3°C° 0 mm 1 mps 652 mmHg 63%
    11:00 +2°C° 0 mm 2 mps 652 mmHg 60%
    12:00 +3°C° 0 mm 2 mps 651 mmHg 58%
    13:00 +3°C° 0.1 mm 2 mps 651 mmHg 60%
    14:00 +3°C° 0.1 mm 2 mps 651 mmHg 63%
    15:00 +3°C° 0.1 mm 2 mps 651 mmHg 65%
    16:00 +2°C° 0.1 mm 2 mps 651 mmHg 68%
    17:00 +2°C° 0.1 mm 2 mps 651 mmHg 72%
    18:00 +1°C° 0.1 mm 2 mps 651 mmHg 76%
    19:00 -1°C° 0.1 mm 2 mps 651 mmHg 77%
    20:00 -1°C° 0.1 mm 2 mps 651 mmHg 78%
    21:00 -1°C° 0.1 mm 2 mps 651 mmHg 79%
    22:00 -1°C° 0.1 mm 2 mps 651 mmHg 79%
    23:00 -1°C° 0.1 mm 2 mps 651 mmHg 79%

    28 September, Friday

    Time Temperature Precipitation Wind Pressure Humidity
    00:00 -2°C° 0.1 mm 2 mps 651 mmHg 79%
    01:00 -2°C° 0.1 mm 2 mps 651 mmHg 79%
    02:00 -2°C° 0.1 mm 2 mps 651 mmHg 79%
    03:00 -1°C° 0.1 mm 2 mps 651 mmHg 79%
    04:00 -2°C° 0.1 mm 2 mps 651 mmHg 79%
    05:00 -2°C° 0.1 mm 2 mps 650 mmHg 79%
    06:00 -2°C° 0.1 mm 2 mps 650 mmHg 78%
    07:00 -1°C° 0 mm 2 mps 650 mmHg 76%
    08:00 +1°C° 0 mm 2 mps 650 mmHg 73%
    09:00 +2°C° 0 mm 2 mps 650 mmHg 70%
    10:00 +2°C° 0.5 mm 2 mps 649 mmHg 72%
    11:00 +2°C° 0.5 mm 2 mps 648 mmHg 75%
    12:00 +2°C° 0.5 mm 2 mps 648 mmHg 77%
    13:00 +2°C° 0.4 mm 2 mps 648 mmHg 78%
    14:00 +3°C° 0.4 mm 2 mps 648 mmHg 78%
    15:00 +3°C° 0.4 mm 2 mps 647 mmHg 79%
    16:00 +1°C° 0.1 mm 3 mps 647 mmHg 80%
    17:00 0°C° 0.1 mm 3 mps 647 mmHg 81%
    18:00 -1°C° 0.1 mm 3 mps 647 mmHg 82%
    19:00 -1°C° 0.2 mm 3 mps 647 mmHg 81%
    20:00 -1°C° 0.2 mm 3 mps 647 mmHg 81%
    21:00 -1°C° 0.2 mm 3 mps 647 mmHg 80%
    22:00 -1°C° 0.2 mm 3 mps 647 mmHg 80%
    23:00 -1°C° 0.2 mm 3 mps 647 mmHg 79%
    Show more